ROU1740 KAUS-CYUL

Flight info

Callsign ROU1740
Flight time N/A
Altitude 35000
Route ILEXY4 ZENZI DCT LFK DCT SQS DCT KT30O DCT VXV DCT HNN DCT EWC DCT JHW DCT ART IMPAC4
Aircraft A319/M-SDE3FGHIRWY/LB1

Departure

Time 2026-04-30 12:13
Airport Austin Bergstrom International Airport (KAUS)

Arrival

Time N/A
Airport Montreal / Pierre Elliott Trudeau International Airport (CYUL)
Time Latitude Longitude Altitude Speed Heading
2026-04-30 11:39 30.20218 -97.66222 528 ft 0 kts 288°
2026-04-30 11:58 30.20212 -97.66200 527 ft 4 kts 285°
2026-04-30 11:59 30.20207 -97.66169 527 ft 4 kts 271°
2026-04-30 11:59 30.20211 -97.66143 527 ft 4 kts 218°
2026-04-30 11:59 30.20218 -97.66138 527 ft 0 kts 182°
2026-04-30 12:03 30.20217 -97.66138 527 ft 1 kts 182°
2026-04-30 12:04 30.20202 -97.66139 527 ft 3 kts 182°
2026-04-30 12:04 30.20171 -97.66139 527 ft 6 kts 180°
2026-04-30 12:04 30.20125 -97.66139 527 ft 7 kts 183°
2026-04-30 12:04 30.20097 -97.66178 527 ft 7 kts 265°
2026-04-30 12:05 30.20096 -97.66234 527 ft 8 kts 270°
2026-04-30 12:05 30.20095 -97.66305 527 ft 10 kts 268°
2026-04-30 12:05 30.20081 -97.66378 527 ft 10 kts 225°
2026-04-30 12:05 30.20013 -97.66391 527 ft 10 kts 181°
2026-04-30 12:06 30.19940 -97.66386 527 ft 11 kts 162°
2026-04-30 12:06 30.19914 -97.66308 527 ft 12 kts 89°
2026-04-30 12:06 30.19916 -97.66199 527 ft 15 kts 88°
2026-04-30 12:06 30.19918 -97.66073 527 ft 15 kts 88°
2026-04-30 12:07 30.19891 -97.65993 527 ft 11 kts 158°
2026-04-30 12:07 30.19807 -97.65987 527 ft 13 kts 179°
2026-04-30 12:07 30.19710 -97.65985 527 ft 15 kts 179°
2026-04-30 12:07 30.19599 -97.65982 527 ft 17 kts 179°
2026-04-30 12:08 30.19475 -97.65978 527 ft 19 kts 178°
2026-04-30 12:08 30.19340 -97.65975 528 ft 20 kts 179°
2026-04-30 12:08 30.19194 -97.65971 528 ft 22 kts 179°
2026-04-30 12:08 30.19040 -97.65966 528 ft 23 kts 179°
2026-04-30 12:09 30.18881 -97.65962 528 ft 23 kts 179°
2026-04-30 12:09 30.18722 -97.65958 527 ft 23 kts 179°
2026-04-30 12:09 30.18562 -97.65954 527 ft 23 kts 179°
2026-04-30 12:09 30.18401 -97.65950 527 ft 23 kts 179°
2026-04-30 12:10 30.18242 -97.65945 527 ft 22 kts 179°
2026-04-30 12:10 30.18115 -97.65942 527 ft 18 kts 179°
2026-04-30 12:10 30.18007 -97.65939 527 ft 13 kts 178°
2026-04-30 12:10 30.17929 -97.65920 527 ft 11 kts 136°
2026-04-30 12:11 30.17919 -97.65839 528 ft 5 kts 90°
2026-04-30 12:11 30.17919 -97.65838 528 ft 0 kts 90°
2026-04-30 12:11 30.17919 -97.65837 528 ft 0 kts 90°
2026-04-30 12:12 30.17918 -97.65820 528 ft 5 kts 90°
2026-04-30 12:12 30.17918 -97.65772 528 ft 7 kts 90°
2026-04-30 12:12 30.17935 -97.65728 527 ft 7 kts 20°
2026-04-30 12:12 30.17964 -97.65727 527 ft 0 kts 358°
2026-04-30 12:13 30.17965 -97.65727 527 ft 4 kts 358°
2026-04-30 12:13 30.18264 -97.65736 526 ft 86 kts 359°
2026-04-30 12:13 30.19127 -97.65755 545 ft 157 kts 359°
2026-04-30 12:13 30.20234 -97.65791 1231 ft 158 kts 358°
2026-04-30 12:14 30.21336 -97.65845 2020 ft 159 kts
2026-04-30 12:14 30.22466 -97.65892 2562 ft 171 kts
2026-04-30 12:14 30.23730 -97.65944 2859 ft 193 kts 360°
2026-04-30 12:14 30.25161 -97.65909 3157 ft 218 kts 13°
2026-04-30 12:15 30.26551 -97.65042 3507 ft 243 kts 44°
2026-04-30 12:15 30.27479 -97.63311 4006 ft 264 kts 70°
2026-04-30 12:15 30.27939 -97.61201 4736 ft 274 kts 77°
2026-04-30 12:15 30.28370 -97.59025 5523 ft 281 kts 76°
2026-04-30 12:16 30.28806 -97.56804 6361 ft 284 kts 76°
2026-04-30 12:16 30.29248 -97.54558 7151 ft 289 kts 75°
2026-04-30 12:16 30.29702 -97.52268 7897 ft 295 kts 75°
2026-04-30 12:16 30.30167 -97.49934 8651 ft 301 kts 74°
2026-04-30 12:17 30.31123 -97.45124 10048 ft 313 kts 73°
2026-04-30 12:17 30.31631 -97.42580 10306 ft 336 kts 73°
2026-04-30 12:17 30.32176 -97.39872 10620 ft 353 kts 74°
2026-04-30 12:18 30.32733 -97.37068 11203 ft 360 kts 75°
2026-04-30 12:18 30.33291 -97.34221 11839 ft 366 kts 76°
2026-04-30 12:18 30.33855 -97.31328 12487 ft 371 kts 76°
2026-04-30 12:18 30.34425 -97.28391 13106 ft 376 kts 77°
2026-04-30 12:19 30.35000 -97.25417 13751 ft 381 kts 78°
2026-04-30 12:19 30.35582 -97.22398 14311 ft 387 kts 79°
2026-04-30 12:19 30.35887 -97.19291 14846 ft 391 kts 90°
2026-04-30 12:19 30.35764 -97.16129 15390 ft 396 kts 96°
2026-04-30 12:20 30.35570 -97.12929 15923 ft 401 kts 96°
2026-04-30 12:20 30.35372 -97.09690 16468 ft 406 kts 96°
2026-04-30 12:20 30.35172 -97.06411 17011 ft 411 kts 96°
2026-04-30 12:20 30.34977 -97.03121 17546 ft 417 kts 96°
2026-04-30 12:21 30.34783 -96.99752 18086 ft 422 kts 96°
2026-04-30 12:21 30.34590 -96.96341 18553 ft 427 kts 96°
2026-04-30 12:21 30.34395 -96.92887 19055 ft 431 kts 96°
2026-04-30 12:21 30.34195 -96.89417 19568 ft 434 kts 96°
2026-04-30 12:22 30.33984 -96.85901 20089 ft 438 kts 95°
2026-04-30 12:22 30.33768 -96.82375 20595 ft 441 kts 95°
2026-04-30 12:22 30.33548 -96.78817 21092 ft 445 kts 95°
2026-04-30 12:22 30.33326 -96.75228 21592 ft 448 kts 95°
2026-04-30 12:23 30.33105 -96.71656 22083 ft 452 kts 95°
2026-04-30 12:23 30.32880 -96.68015 22578 ft 455 kts 95°
2026-04-30 12:23 30.32652 -96.64342 23063 ft 458 kts 94°
2026-04-30 12:23 30.32419 -96.60646 23521 ft 462 kts 94°
2026-04-30 12:24 30.32183 -96.56923 23891 ft 465 kts 94°
2026-04-30 12:24 30.31947 -96.53177 24213 ft 468 kts 94°
2026-04-30 12:24 30.31789 -96.50675 24460 ft 470 kts 94°
2026-04-30 12:24 30.31548 -96.46890 24819 ft 474 kts 95°
2026-04-30 12:25 30.31302 -96.43068 25154 ft 478 kts 95°
2026-04-30 12:25 30.31055 -96.39218 25507 ft 481 kts 95°
2026-04-30 12:25 30.30725 -96.34089 25941 ft 485 kts 95°
2026-04-30 12:25 30.30471 -96.30189 26282 ft 488 kts 95°
2026-04-30 12:26 30.30296 -96.27537 26505 ft 490 kts 95°
2026-04-30 12:26 30.30035 -96.23598 26791 ft 492 kts 95°
2026-04-30 12:26 30.29770 -96.19638 27115 ft 495 kts 95°
2026-04-30 12:26 30.29502 -96.15650 27433 ft 498 kts 94°
2026-04-30 12:27 30.29499 -96.11633 27748 ft 501 kts 84°
2026-04-30 12:27 30.30039 -96.07709 28060 ft 501 kts 73°
2026-04-30 12:27 30.31120 -96.03882 28399 ft 499 kts 63°
2026-04-30 12:27 30.32690 -96.00313 28723 ft 496 kts 53°
2026-04-30 12:28 30.34675 -95.97070 29036 ft 494 kts 46°
2026-04-30 12:28 30.36773 -95.93905 29349 ft 497 kts 47°
2026-04-30 12:28 30.38880 -95.90718 29683 ft 499 kts 47°
2026-04-30 12:28 30.40994 -95.87513 29965 ft 502 kts 47°
2026-04-30 12:29 30.43112 -95.84293 30237 ft 504 kts 47°
2026-04-30 12:29 30.45237 -95.81056 30512 ft 506 kts 47°
2026-04-30 12:29 30.47374 -95.77797 30818 ft 507 kts 47°
2026-04-30 12:29 30.49514 -95.74536 31084 ft 509 kts 46°
2026-04-30 12:30 30.51662 -95.71266 31338 ft 510 kts 46°
2026-04-30 12:30 30.53817 -95.67985 31637 ft 511 kts 46°
2026-04-30 12:30 30.55963 -95.64714 32028 ft 509 kts 46°
2026-04-30 12:30 30.58105 -95.61447 32515 ft 508 kts 46°
2026-04-30 12:31 30.60241 -95.58188 32885 ft 507 kts 46°
2026-04-30 12:31 30.62378 -95.54928 33261 ft 506 kts 46°
2026-04-30 12:31 30.64502 -95.51680 33640 ft 505 kts 46°
2026-04-30 12:31 30.66620 -95.48430 34005 ft 504 kts 46°
2026-04-30 12:32 30.68733 -95.45185 34321 ft 503 kts 46°
2026-04-30 12:32 30.70845 -95.41943 34614 ft 502 kts 45°
2026-04-30 12:32 30.72954 -95.38708 34839 ft 503 kts 45°
2026-04-30 12:32 30.75033 -95.35518 34893 ft 497 kts 45°
2026-04-30 12:33 30.79172 -95.29163 34903 ft 490 kts 45°
2026-04-30 12:33 30.83274 -95.22850 34892 ft 489 kts 45°
2026-04-30 12:34 30.87371 -95.16522 34905 ft 490 kts 45°
2026-04-30 12:34 30.91480 -95.10178 34905 ft 491 kts 45°
2026-04-30 12:35 30.95586 -95.03824 34901 ft 491 kts 45°
2026-04-30 12:35 30.99690 -94.97461 34930 ft 491 kts 45°
2026-04-30 12:36 31.03792 -94.91091 34941 ft 490 kts 45°
2026-04-30 12:36 31.07886 -94.84729 34956 ft 490 kts 45°
2026-04-30 12:37 31.11967 -94.78374 34958 ft 489 kts 45°
2026-04-30 12:37 31.16017 -94.72038 34989 ft 490 kts 46°
2026-04-30 12:38 31.19881 -94.65434 34945 ft 495 kts 50°
2026-04-30 12:38 31.23527 -94.58588 34937 ft 497 kts 52°
2026-04-30 12:39 31.27161 -94.51725 34932 ft 496 kts 51°
2026-04-30 12:39 31.30861 -94.44920 34934 ft 495 kts 50°
2026-04-30 12:40 31.34589 -94.38145 34946 ft 495 kts 50°
2026-04-30 12:40 31.38278 -94.31393 34948 ft 495 kts 50°
2026-04-30 12:41 31.41993 -94.24541 34951 ft 495 kts 51°
2026-04-30 12:41 31.45661 -94.17763 34987 ft 495 kts 50°
2026-04-30 12:42 31.49356 -94.10939 34966 ft 496 kts 50°
2026-04-30 12:42 31.53051 -94.04109 34956 ft 496 kts 50°
2026-04-30 12:43 31.56743 -93.97257 34954 ft 497 kts 50°
2026-04-30 12:43 31.60431 -93.90404 34961 ft 497 kts 50°
2026-04-30 12:44 31.64121 -93.83549 34957 ft 497 kts 50°
2026-04-30 12:44 31.67783 -93.76730 34972 ft 497 kts 49°
2026-04-30 12:45 31.71457 -93.69854 34980 ft 497 kts 49°
2026-04-30 12:45 31.75127 -93.62975 34986 ft 497 kts 49°
2026-04-30 12:46 31.78806 -93.56080 34964 ft 498 kts 49°
2026-04-30 12:46 31.82496 -93.49164 34968 ft 498 kts 49°
2026-04-30 12:47 31.86176 -93.42246 34968 ft 499 kts 49°
2026-04-30 12:47 31.89849 -93.35315 34978 ft 500 kts 49°
2026-04-30 12:48 31.93505 -93.28419 34976 ft 500 kts 49°
2026-04-30 12:48 31.97186 -93.21470 34977 ft 500 kts 50°
2026-04-30 12:49 32.00860 -93.14514 34979 ft 500 kts 50°
2026-04-30 12:49 32.04527 -93.07548 35031 ft 501 kts 49°
2026-04-30 12:50 32.08193 -93.00569 35016 ft 500 kts 49°
2026-04-30 12:50 32.11855 -92.93589 35006 ft 500 kts 49°
2026-04-30 12:51 32.15514 -92.86611 35003 ft 500 kts 49°
2026-04-30 12:51 32.19162 -92.79636 34997 ft 500 kts 49°
2026-04-30 12:52 32.22787 -92.72688 34996 ft 500 kts 49°
2026-04-30 12:52 32.26425 -92.65690 35016 ft 500 kts 49°
2026-04-30 12:53 32.30059 -92.58695 35018 ft 499 kts 49°
2026-04-30 12:53 32.33689 -92.51710 35040 ft 498 kts 49°
2026-04-30 12:54 32.37311 -92.44722 35040 ft 498 kts 49°
2026-04-30 12:54 32.40929 -92.37743 35033 ft 498 kts 49°
2026-04-30 12:55 32.44541 -92.30739 35026 ft 498 kts 49°
2026-04-30 12:55 32.48140 -92.23734 35038 ft 497 kts 49°
2026-04-30 12:56 32.51740 -92.16734 35040 ft 497 kts 49°
2026-04-30 12:56 32.55331 -92.09743 35037 ft 497 kts 49°
2026-04-30 12:57 32.58897 -92.02774 35034 ft 497 kts 49°
2026-04-30 12:57 32.62476 -91.95766 35054 ft 497 kts 49°
2026-04-30 12:58 32.66061 -91.88751 35067 ft 497 kts 49°
2026-04-30 12:58 32.69643 -91.81724 35035 ft 497 kts 49°
2026-04-30 12:59 32.73212 -91.74697 35032 ft 497 kts 49°
2026-04-30 12:59 32.76777 -91.67667 35025 ft 497 kts 49°
2026-04-30 13:00 32.80341 -91.60630 35020 ft 497 kts 49°
2026-04-30 13:00 32.83903 -91.53598 35003 ft 497 kts 49°
2026-04-30 13:01 32.87462 -91.46558 34987 ft 496 kts 49°
2026-04-30 13:01 32.90989 -91.39556 35011 ft 497 kts 49°
2026-04-30 13:02 32.94537 -91.32487 34996 ft 497 kts 49°
2026-04-30 13:02 32.98080 -91.25419 34999 ft 497 kts 49°
2026-04-30 13:03 33.01628 -91.18342 35017 ft 498 kts 49°
2026-04-30 13:03 33.05175 -91.11253 35045 ft 498 kts 50°
2026-04-30 13:04 33.08704 -91.04161 35048 ft 497 kts 50°
2026-04-30 13:04 33.12227 -90.97074 35051 ft 496 kts 50°
2026-04-30 13:05 33.15743 -90.89985 35078 ft 496 kts 49°
2026-04-30 13:06 33.21046 -90.79320 35020 ft 499 kts 49°
2026-04-30 13:06 33.24568 -90.72219 35010 ft 500 kts 50°
2026-04-30 13:07 33.28100 -90.65049 35031 ft 501 kts 50°
2026-04-30 13:07 33.31629 -90.57868 35028 ft 501 kts 50°
2026-04-30 13:08 33.35159 -90.50683 35032 ft 501 kts 50°
2026-04-30 13:08 33.38687 -90.43493 35041 ft 501 kts 50°
2026-04-30 13:09 33.42213 -90.36301 35059 ft 501 kts 50°
2026-04-30 13:09 33.45731 -90.29092 35062 ft 501 kts 50°
2026-04-30 13:10 33.48786 -90.21478 35065 ft 509 kts 57°
2026-04-30 13:10 33.51714 -90.13811 35066 ft 509 kts 57°
2026-04-30 13:11 33.54661 -90.06092 35067 ft 510 kts 57°
2026-04-30 13:11 33.57602 -89.98352 35052 ft 510 kts 57°
2026-04-30 13:12 33.60539 -89.90609 35042 ft 510 kts 57°
2026-04-30 13:12 33.63474 -89.82865 35045 ft 509 kts 57°
2026-04-30 13:13 33.67863 -89.71247 35045 ft 509 kts 57°
2026-04-30 13:14 33.71747 -89.60915 35050 ft 511 kts 56°
2026-04-30 13:14 33.76127 -89.49225 35032 ft 511 kts 56°
2026-04-30 13:15 33.80508 -89.37520 35035 ft 512 kts 56°
2026-04-30 13:16 33.83427 -89.29692 35035 ft 512 kts 57°
2026-04-30 13:16 33.86332 -89.21856 35036 ft 513 kts 57°
2026-04-30 13:17 33.90669 -89.10152 35040 ft 512 kts 57°
2026-04-30 13:18 33.95015 -88.98373 35083 ft 512 kts 57°
2026-04-30 13:18 33.99353 -88.86594 35041 ft 514 kts 56°
2026-04-30 13:19 34.02241 -88.78709 35048 ft 514 kts 57°
2026-04-30 13:19 34.05127 -88.70819 35046 ft 514 kts 57°
2026-04-30 13:20 34.08014 -88.62913 35049 ft 515 kts 57°
2026-04-30 13:20 34.10879 -88.55047 35050 ft 515 kts 57°
2026-04-30 13:21 34.13759 -88.47122 35051 ft 516 kts 57°
2026-04-30 13:22 34.18068 -88.35213 35034 ft 516 kts 57°
2026-04-30 13:22 34.22366 -88.23291 35060 ft 516 kts 57°
2026-04-30 13:23 34.26670 -88.11343 35036 ft 516 kts 57°
2026-04-30 13:24 34.32357 -87.95431 35027 ft 517 kts 57°
2026-04-30 13:25 34.38050 -87.79418 35020 ft 518 kts 57°
2026-04-30 13:26 34.45161 -87.59358 35027 ft 519 kts 58°
2026-04-30 13:28 34.52274 -87.39131 35019 ft 524 kts 57°
2026-04-30 13:28 34.56558 -87.26912 35020 ft 525 kts 57°
2026-04-30 13:29 34.62260 -87.10559 35047 ft 526 kts 57°
2026-04-30 13:31 34.69343 -86.90075 35064 ft 526 kts 57°
2026-04-30 13:32 34.76474 -86.69401 35026 ft 532 kts 57°
2026-04-30 13:33 34.82140 -86.52800 35056 ft 533 kts 57°
2026-04-30 13:34 34.86405 -86.40291 35053 ft 533 kts 57°
2026-04-30 13:35 34.92073 -86.23577 35013 ft 533 kts 57°
2026-04-30 13:36 34.97701 -86.06853 35005 ft 533 kts 58°
2026-04-30 13:36 35.02338 -85.94687 35023 ft 522 kts 50°
2026-04-30 13:37 35.07501 -85.83069 35011 ft 521 kts 50°
2026-04-30 13:38 35.12683 -85.71329 35003 ft 522 kts 50°
2026-04-30 13:39 35.19501 -85.55724 35047 ft 522 kts 51°
2026-04-30 13:40 35.24644 -85.43958 35028 ft 522 kts 51°
2026-04-30 13:40 35.28062 -85.36122 35020 ft 521 kts 51°
2026-04-30 13:41 35.31472 -85.28286 35006 ft 521 kts 51°
2026-04-30 13:41 35.34872 -85.20441 35001 ft 521 kts 51°
2026-04-30 13:42 35.38265 -85.12589 35005 ft 521 kts 52°
2026-04-30 13:42 35.43326 -85.00849 35050 ft 522 kts 52°
2026-04-30 13:43 35.46711 -84.92985 35040 ft 521 kts 52°
2026-04-30 13:43 35.50089 -84.85124 35040 ft 521 kts 52°
2026-04-30 13:44 35.53454 -84.77247 35034 ft 521 kts 52°
2026-04-30 13:44 35.56818 -84.69365 35030 ft 521 kts 52°
2026-04-30 13:45 35.61855 -84.57538 35027 ft 521 kts 53°
2026-04-30 13:46 35.65206 -84.49648 35061 ft 520 kts 53°
2026-04-30 13:46 35.68558 -84.41763 35044 ft 520 kts 53°
2026-04-30 13:47 35.71894 -84.33871 35017 ft 520 kts 53°
2026-04-30 13:47 35.75224 -84.25963 35034 ft 520 kts 54°
2026-04-30 13:48 35.78542 -84.18061 35022 ft 520 kts 54°
2026-04-30 13:48 35.81834 -84.10196 35023 ft 520 kts 54°
2026-04-30 13:49 35.85137 -84.02281 35016 ft 520 kts 54°
2026-04-30 13:49 35.88633 -83.94527 35031 ft 508 kts 44°
2026-04-30 13:49 35.90836 -83.91202 35030 ft 493 kts 34°
2026-04-30 13:50 35.93318 -83.88383 35037 ft 478 kts 25°
2026-04-30 13:50 35.98803 -83.84228 35029 ft 454 kts 12°
2026-04-30 13:50 36.01627 -83.82458 35027 ft 455 kts 13°
2026-04-30 13:51 36.07273 -83.78903 35021 ft 456 kts 13°
2026-04-30 13:51 36.12884 -83.75363 35044 ft 456 kts 13°
2026-04-30 13:52 36.18542 -83.71777 35019 ft 456 kts 13°
2026-04-30 13:52 36.24190 -83.68192 35005 ft 457 kts 13°
2026-04-30 13:53 36.29848 -83.64600 35000 ft 457 kts 13°
2026-04-30 13:53 36.35511 -83.60994 35016 ft 457 kts 14°
2026-04-30 13:54 36.41113 -83.57417 35002 ft 455 kts 14°
2026-04-30 13:54 36.46741 -83.53826 35000 ft 455 kts 14°
2026-04-30 13:55 36.52383 -83.50219 34993 ft 456 kts 14°
2026-04-30 13:55 36.58027 -83.46609 35067 ft 456 kts 14°
2026-04-30 13:56 36.63678 -83.42991 35038 ft 457 kts 15°
2026-04-30 13:56 36.69332 -83.39355 35028 ft 457 kts 15°
2026-04-30 13:57 36.74989 -83.35714 35021 ft 458 kts 15°
2026-04-30 13:57 36.80651 -83.32067 35083 ft 458 kts 15°
2026-04-30 13:58 36.89140 -83.26585 35023 ft 457 kts 15°
2026-04-30 13:59 36.94748 -83.22951 35022 ft 457 kts 15°
2026-04-30 13:59 37.00401 -83.19284 35019 ft 457 kts 15°
2026-04-30 14:00 37.06055 -83.15624 35060 ft 457 kts 15°
2026-04-30 14:00 37.14544 -83.10093 35019 ft 459 kts 16°
2026-04-30 14:01 37.19254 -83.07018 35016 ft 460 kts 16°
2026-04-30 14:01 37.24929 -83.03306 35016 ft 460 kts 16°
2026-04-30 14:02 37.30610 -82.99585 35074 ft 460 kts 17°
2026-04-30 14:02 37.36289 -82.95865 35059 ft 460 kts 16°
2026-04-30 14:03 37.41971 -82.92141 35046 ft 460 kts 16°
2026-04-30 14:03 37.47652 -82.88404 35040 ft 461 kts 17°
2026-04-30 14:04 37.53333 -82.84665 35082 ft 461 kts 17°
2026-04-30 14:04 37.59010 -82.80915 35061 ft 461 kts 17°
2026-04-30 14:05 37.64692 -82.77160 35054 ft 461 kts 17°
2026-04-30 14:05 37.70375 -82.73403 35060 ft 461 kts 17°
2026-04-30 14:06 37.78902 -82.67744 35075 ft 462 kts 18°
2026-04-30 14:07 37.87438 -82.62064 35059 ft 462 kts 18°
2026-04-30 14:08 37.95978 -82.56369 35087 ft 462 kts 18°
2026-04-30 14:08 38.04482 -82.50686 35046 ft 463 kts 18°
2026-04-30 14:09 38.10166 -82.46865 35032 ft 462 kts 18°
2026-04-30 14:10 38.18700 -82.41138 35028 ft 462 kts 18°
2026-04-30 14:10 38.24379 -82.37313 35010 ft 462 kts 18°
2026-04-30 14:11 38.30068 -82.33471 35011 ft 462 kts 18°
2026-04-30 14:11 38.35755 -82.29632 35013 ft 463 kts 18°
2026-04-30 14:12 38.41450 -82.25777 35072 ft 463 kts 19°
2026-04-30 14:12 38.47135 -82.21919 35054 ft 463 kts 19°
2026-04-30 14:13 38.52821 -82.18056 35050 ft 463 kts 19°
2026-04-30 14:13 38.58501 -82.14181 35039 ft 463 kts 19°
2026-04-30 14:14 38.64180 -82.10306 35074 ft 462 kts 19°
2026-04-30 14:14 38.69856 -82.06439 35056 ft 462 kts 19°
2026-04-30 14:15 38.75522 -82.02519 35042 ft 466 kts 23°
2026-04-30 14:15 38.80973 -81.97925 35035 ft 469 kts 25°
2026-04-30 14:16 38.86378 -81.93334 35069 ft 469 kts 25°
2026-04-30 14:16 38.91829 -81.88705 35055 ft 469 kts 25°
2026-04-30 14:17 38.97266 -81.84084 35039 ft 469 kts 25°
2026-04-30 14:17 39.02711 -81.79455 35031 ft 468 kts 25°
2026-04-30 14:18 39.08159 -81.74810 35061 ft 468 kts 25°
2026-04-30 14:18 39.16288 -81.67851 35042 ft 467 kts 25°
2026-04-30 14:19 39.24372 -81.60915 35001 ft 467 kts 25°
2026-04-30 14:20 39.29780 -81.56274 35045 ft 467 kts 25°
2026-04-30 14:20 39.37876 -81.49293 35024 ft 466 kts 25°
2026-04-30 14:21 39.43269 -81.44623 35017 ft 466 kts 25°
2026-04-30 14:22 39.51347 -81.37636 35041 ft 466 kts 25°
2026-04-30 14:22 39.59415 -81.30620 35018 ft 465 kts 26°
2026-04-30 14:23 39.70154 -81.21262 35036 ft 465 kts 26°
2026-04-30 14:24 39.78174 -81.14259 35013 ft 464 kts 26°
2026-04-30 14:25 39.88879 -81.04859 34978 ft 463 kts 26°
2026-04-30 14:26 39.96901 -80.97806 34989 ft 463 kts 27°
2026-04-30 14:27 40.04871 -80.90765 34956 ft 463 kts 27°
2026-04-30 14:27 40.10207 -80.86044 34962 ft 463 kts 27°
2026-04-30 14:28 40.18214 -80.78948 34983 ft 464 kts 27°
2026-04-30 14:28 40.23554 -80.74205 34977 ft 464 kts 27°
2026-04-30 14:29 40.33336 -80.65486 34972 ft 465 kts 27°
2026-04-30 14:31 40.47575 -80.52719 34958 ft 465 kts 28°
2026-04-30 14:31 40.55595 -80.45507 34985 ft 466 kts 28°
2026-04-30 14:32 40.63614 -80.38263 34987 ft 466 kts 28°
2026-04-30 14:33 40.68958 -80.33431 34979 ft 465 kts 28°
2026-04-30 14:33 40.76969 -80.26188 35006 ft 466 kts 28°
2026-04-30 14:34 40.82314 -80.21336 34994 ft 466 kts 28°
2026-04-30 14:34 40.87770 -80.16782 34991 ft 463 kts 24°
2026-04-30 14:35 40.96119 -80.10472 35000 ft 463 kts 23°
2026-04-30 14:36 41.01690 -80.06186 34993 ft 463 kts 24°
2026-04-30 14:36 41.07235 -80.01814 34988 ft 464 kts 25°
2026-04-30 14:37 41.12770 -79.97418 34999 ft 464 kts 25°
2026-04-30 14:37 41.18306 -79.93036 34986 ft 463 kts 25°
2026-04-30 14:38 41.23850 -79.88657 34968 ft 463 kts 25°
2026-04-30 14:38 41.29387 -79.84282 34950 ft 463 kts 25°
2026-04-30 14:39 41.34925 -79.79885 34979 ft 463 kts 25°
2026-04-30 14:39 41.40456 -79.75488 34952 ft 463 kts 25°
2026-04-30 14:40 41.48731 -79.68889 34942 ft 463 kts 25°
2026-04-30 14:40 41.54263 -79.64458 34973 ft 464 kts 26°
2026-04-30 14:41 41.59795 -79.60021 34965 ft 463 kts 26°
2026-04-30 14:41 41.65320 -79.55588 34951 ft 463 kts 26°
2026-04-30 14:42 41.70842 -79.51151 34948 ft 463 kts 26°
2026-04-30 14:42 41.76330 -79.46721 34954 ft 463 kts 26°
2026-04-30 14:43 41.81844 -79.42256 34930 ft 463 kts 26°
2026-04-30 14:43 41.87359 -79.37795 34922 ft 463 kts 26°
2026-04-30 14:44 41.92872 -79.33330 34947 ft 463 kts 26°
2026-04-30 14:44 41.98395 -79.28852 34942 ft 463 kts 26°
2026-04-30 14:45 42.03918 -79.24361 34926 ft 464 kts 26°
2026-04-30 14:45 42.09435 -79.19857 34924 ft 464 kts 26°
2026-04-30 14:46 42.14921 -79.15358 34937 ft 465 kts 26°
2026-04-30 14:46 42.19315 -79.11042 34951 ft 471 kts 40°
2026-04-30 14:47 42.24287 -79.03188 34930 ft 474 kts 48°
2026-04-30 14:47 42.28466 -78.96278 34930 ft 475 kts 48°
2026-04-30 14:48 42.31936 -78.90532 34936 ft 475 kts 48°
2026-04-30 14:48 42.36113 -78.83597 34932 ft 475 kts 48°
2026-04-30 14:49 42.40287 -78.76650 34937 ft 475 kts 48°
2026-04-30 14:49 42.44455 -78.69694 34933 ft 475 kts 48°
2026-04-30 14:50 42.50690 -78.59247 34936 ft 475 kts 49°
2026-04-30 14:51 42.56894 -78.48841 34937 ft 475 kts 49°
2026-04-30 14:52 42.63119 -78.38371 34935 ft 475 kts 49°
2026-04-30 14:52 42.69321 -78.27854 34951 ft 475 kts 49°
2026-04-30 14:53 42.75523 -78.17333 34937 ft 475 kts 49°
2026-04-30 14:54 42.83774 -78.03281 34959 ft 475 kts 50°
2026-04-30 14:55 42.89943 -77.92730 34923 ft 474 kts 50°
2026-04-30 14:56 42.98149 -77.78631 34932 ft 474 kts 50°
2026-04-30 14:57 43.04252 -77.68094 34921 ft 473 kts 50°
2026-04-30 14:58 43.12408 -77.53958 34892 ft 473 kts 50°
2026-04-30 14:58 43.18515 -77.43332 34920 ft 472 kts 51°
2026-04-30 15:00 43.28635 -77.25631 34921 ft 471 kts 51°
2026-04-30 15:01 43.36671 -77.11504 34913 ft 470 kts 51°
2026-04-30 15:01 43.42706 -77.00861 34911 ft 470 kts 52°
2026-04-30 15:02 43.46723 -76.93749 34909 ft 470 kts 52°
2026-04-30 15:03 43.56728 -76.75951 34902 ft 470 kts 52°
2026-04-30 15:04 43.66678 -76.58139 34915 ft 469 kts 52°
2026-04-30 15:06 43.76602 -76.40282 34887 ft 468 kts 53°
2026-04-30 15:07 43.84478 -76.25997 34880 ft 467 kts 53°
2026-04-30 15:08 43.92379 -76.11647 34413 ft 469 kts 53°
2026-04-30 15:08 43.99592 -76.02605 33215 ft 469 kts 31°
2026-04-30 15:09 44.05126 -75.97741 32370 ft 471 kts 31°
2026-04-30 15:09 44.10671 -75.92840 31510 ft 473 kts 32°
2026-04-30 15:10 44.16215 -75.87912 30717 ft 473 kts 32°
2026-04-30 15:11 44.27332 -75.78029 29125 ft 472 kts 33°
2026-04-30 15:11 44.32830 -75.73119 28404 ft 467 kts 33°
2026-04-30 15:12 44.40924 -75.65870 27351 ft 458 kts 33°
2026-04-30 15:13 44.46262 -75.61075 26671 ft 453 kts 33°
2026-04-30 15:14 44.56789 -75.51610 25329 ft 445 kts 34°
2026-04-30 15:14 44.64536 -75.44616 24393 ft 438 kts 34°
2026-04-30 15:16 44.76098 -75.31508 22767 ft 421 kts 52°
2026-04-30 15:17 44.83689 -75.19252 21372 ft 412 kts 52°
2026-04-30 15:18 44.92958 -75.04205 19710 ft 401 kts 52°
2026-04-30 15:19 44.98338 -74.95290 18765 ft 392 kts 58°